Overview Statistics Trail Chart Weather Telemetry Raw packets
 

This is the latest recevied weather packets stored in our database for station/object KC4JIR. If no packets are shown the sender has not sent any weather packets the latest 10 day(s).

<< 48 49 50 51 52 53 54 >>
Time Temp. Humidity Pressure Rain* Wind** Luminosity Snow
1788278367 31.67° C 74% 1017.4 hPa 0 mm - 892 W/m² -
1788278062 31.67° C 73% 1017.5 hPa 0 mm - 906 W/m² -
1788277759 31.67° C 74% 1017.3 hPa 0 mm - 901 W/m² -
1788277458 31.11° C 76% 1017.5 hPa 0 mm - 886 W/m² -
1788277152 31.11° C 76% 1017.5 hPa 0 mm - 926 W/m² -
1788276852 30.56° C 76% 1017.6 hPa 0 mm - 799 W/m² -
1788276546 30.56° C 76% 1017.4 hPa 0 mm - 799 W/m² -
1788276241 30.56° C 77% 1017.5 hPa 0 mm - 812 W/m² -
1788275935 30.56° C 77% 1017.8 hPa 0 mm - 780 W/m² -
1788275630 30.56° C 77% 1017.8 hPa 0 mm - 780 W/m² -
1788275329 30.56° C 76% 1017.7 hPa 0 mm - 761 W/m² -
1788275027 30° C 78% 1017.8 hPa 0 mm - 726 W/m² -
1788274724 30° C 78% 1017.9 hPa 0 mm - 726 W/m² -
1788274419 29.44° C 80% 1017.6 hPa 0 mm - 729 W/m² -
1788274114 29.44° C 79% 1017.9 hPa 0 mm - 721 W/m² -
1788273810 28.89° C 80% 1017.6 hPa 0 mm - 694 W/m² -
1788273505 28.89° C 81% 1017.6 hPa 0 mm - 449 W/m² -
1788273201 28.33° C 82% 1017.7 hPa 0 mm - 214 W/m² -
1788272897 28.89° C 86% 1017.6 hPa 0 mm - 475 W/m² -
1788272596 28.89° C 85% 1017.7 hPa 0 mm - 313 W/m² -
1788272292 28.33° C 86% 1017.5 hPa 0 mm - 309 W/m² -
1788271992 27.78° C 90% 1017.7 hPa 0 mm - 467 W/m² -
1788271690 27.22° C 90% 1017.7 hPa 0 mm - 505 W/m² -
1788271389 27.22° C 91% 1017.7 hPa 0 mm - 85 W/m² -
1788271084 26.67° C 92% 1017.7 hPa 0 mm - 58 W/m² -

* Rain latest hour (hover to see other rain measurements)
** Current wind speed in m/s (hover to see current wind gust speed)